Temp
-1 -0 0 1 1 2 2 3 2 4 4 4 1 0 0 1 2 2 1 2 2 2 2 2 2 3 4 4 5 5 6 7 7 7 7 7 7 7 7 6 6 7 7 6
-2 0 1 1 2 3 3 4 3 3 3 1 1 1 1 1 1 1 1 1 2 2 2 2 2 2 3 3 5 5 5 6 7 7 7 7 7 7 6 6 6 6 6 6
-3 -1 0 1 2 1 2 2 1 0 -0 1 1 1 0 1 1 1 1 1 1 2 2 2 2 2 2 4 4 5 6 6 6 7 7 7 7 7 7 6 6 6 5 5
-3 -2 -3 1 2 2 2 2 1 0 0 0 0 0 0 1 -0 -0 -0 0 1 1 2 2 1 2 2 3 4 4 5 6 6 6 7 7 7 7 7 6 6 6 5 4
-3 -2 -1 0 0 -0 0 -0 -0 -1 -0 -0 -0 -0 -0 1 -0 -0 -0 -0 0 1 1 1 1 1 2 3 3 4 4 4 5 5 6 7 7 7 6 6 5 4 4 4
-3 -3 -3 -0 -0 1 1 -2 -1 -1 -1 -1 -1 -3 -2 -1 -1 -1 -1 -0 -0 -0 0 1 1 1 1 2 2 3 2 3 4 5 4 6 6 6 5 5 5 4 3 1
-3 -4 -3 -2 -1 0 -2 -2 -1 -1 -1 -1 -2 -2 -1 -1 -2 -2 -1 -1 -1 -1 -1 0 0 1 1 1 2 2 2 2 3 4 4 4 4 5 4 3 2 1 0 -1
-5 -4 -5 -1 -2 -3 -2 -2 -2 -1 -1 -1 -2 -2 -2 -2 -2 -2 -2 -2 -2 -2 -1 -1 -0 -0 0 0 1 1 1 1 2 3 3 2 2 3 1 0 -1 -1 -1 -2
-4 -4 -2 -2 -3 -4 -3 -2 -3 -4 -4 -4 -3 -3 -3 -3 -3 -3 -3 -3 -3 -3 -2 -1 -1 -1 -0 0 0 1 0 0 1 1 1 1 0 -0 -1 -2 -1 -2 -2 -2
-6 -3 -3 -5 -5 -4 -5 -5 -6 -6 -6 -6 -6 -5 -5 -4 -4 -4 -4 -4 -4 -4 -3 -2 -1 -1 -0 0 0 -0 -0 -0 -0 -0 -0 -1 -2 -2 -2 -3 -3 -3 -2 -2
-6 -5 -7 -6 -7 -8 -8 -8 -8 -8 -7 -7 -6 -6 -6 -5 -6 -5 -5 -5 -4 -4 -4 -2 -1 -1 -0 -0 -0 -1 -1 -1 -1 -2 -2 -2 -3 -3 -3 -3 -2 -2 -2 -1
-8 -8 -9 -9 -9 -9 -10 -10 -10 -9 -9 -9 -8 -8 -7 -7 -7 -6 -6 -5 -5 -4 -3 -2 -1 -1 -0 -0 -1 -1 -1 -2 -2 -2 -3 -3 -3 -4 -3 -2 -2 -1 -1 -1
-10 -10 -11 -11 -11 -10 -10 -10 -10 -10 -10 -9 -9 -9 -8 -8 -7 -7 -6 -5 -4 -3 -2 -2 -1 -1 -0 -1 -1 -2 -2 -2 -2 -3 -3 -3 -3 -3 -3 -2 -2 -3 -3 -2
-11 -11 -11 -11 -11 -11 -10 -10 -10 -9 -9 -9 -9 -9 -9 -8 -8 -7 -6 -5 -5 -4 -2 -1 -1 -1 -1 -1 -1 -2 -2 -2 -2 -3 -3 -3 -3 -2 -3 -4 -4 -4 -3 -2
-12 -12 -12 -11 -11 -10 -10 -10 -8 -8 -8 -8 -9 -9 -9 -8 -7 -7 -6 -5 -5 -4 -2 -1 -1 -1 -1 -1 -1 -2 -3 -3 -3 -3 -3 -2 -2 -2 -2 -3 -5 -4 -4 -4
-12 -12 -12 -12 -11 -11 -11 -10 -9 -8 -8 -8 -9 -9 -8 -8 -7 -7 -6 -6 -5 -4 -3 -3 -2 -2 -1 -2 -2 -3 -3 -3 -3 -3 -3 -3 -4 -5 -4 -3 -3 -4 -2 -2
-13 -12 -12 -12 -11 -11 -11 -11 -10 -9 -8 -8 -7 -7 -8 -8 -7 -7 -6 -5 -5 -4 -4 -4 -2 -2 -2 -3 -3 -4 -4 -4 -3 -3 -2 -3 -4 -3 -2 -2 -4 -4 -2 -2
-12 -12 -12 -12 -12 -12 -12 -11 -11 -10 -9 -9 -8 -7 -7 -7 -7 -7 -6 -5 -5 -4 -4 -4 -4 -4 -3 -4 -4 -4 -4 -4 -4 -3 -3 -4 -3 -3 -3 -3 -4 -4 -4 -4
-12 -12 -12 -12 -12 -12 -12 -12 -11 -10 -9 -9 -9 -9 -9 -9 -8 -8 -7 -7 -7 -6 -6 -5 -5 -5 -5 -5 -5 -5 -5 -5 -4 -4 -4 -5 -4 -4 -4 -4 -5 -4 -4 -4
-11 -12 -12 -12 -12 -12 -12 -12 -11 -11 -10 -10 -9 -10 -10 -9 -9 -9 -9 -9 -8 -8 -6 -6 -6 -6 -6 -6 -5 -5 -5 -5 -5 -5 -5 -5 -4 -4 -5 -6 -5 -5 -6 -6
-12 -12 -12 -12 -12 -12 -12 -12 -11 -11 -10 -10 -10 -10 -10 -10 -10 -10 -9 -9 -9 -8 -7 -7 -7 -7 -6 -6 -6 -6 -5 -5 -5 -5 -5 -5 -5 -6 -6 -6 -6 -6 -7 -7
-13 -13 -12 -12 -12 -12 -12 -12 -11 -11 -11 -11 -11 -11 -10 -10 -10 -10 -10 -10 -10 -9 -9 -9 -8 -8 -7 -6 -6 -6 -6 -6 -6 -7 -7 -7 -6 -6 -6 -6 -6 -6 -6 -7
-13 -13 -13 -12 -13 -13 -12 -12 -12 -12 -12 -12 -11 -11 -12 -12 -12 -11 -12 -11 -10 -10 -9 -9 -8 -8 -7 -7 -8 -8 -8 -9 -9 -8 -7 -7 -7 -7 -7 -7 -7 -7 -7 -8
-13 -13 -13 -12 -12 -12 -12 -12 -12 -12 -12 -12 -12 -12 -11 -11 -11 -11 -11 -11 -10 -10 -10 -10 -9 -9 -9 -9 -9 -9 -9 -9 -9 -9 -8 -8 -8 -8 -8 -8 -8 -8 -8 -9
-13 -13 -13 -12 -12 -13 -13 -12 -12 -12 -12 -12 -12 -12 -12 -12 -12 -12 -11 -11 -11 -10 -11 -11 -10 -10 -10 -9 -9 -9 -9 -9 -9 -9 -9 -9 -9 -9 -9 -9 -9 -9 -9 -9
-14 -14 -13 -14 -13 -13 -13 -13 -13 -14 -13 -12 -12 -12 -12 -12 -11 -11 -11 -11 -11 -11 -10 -11 -11 -10 -10 -10 -9 -9 -9 -9 -9 -9 -9 -9 -9 -9 -9 -9 -10 -10 -10 -10
-13 -14 -13 -13 -13 -13 -13 -13 -13 -13 -14 -13 -13 -13 -12 -12 -12 -11 -11 -11 -11 -11 -11 -11 -11 -11 -10 -10 -10 -10 -10 -10 -10 -10 -10 -10 -10 -10 -10 -10 -10 -10 -10 -10
Height
1487 1484 1479 1474 1466 1457 1462 1458 1461 1447 1448 1444 1448 1452 1448 1446 1442 1437 1433 1431 1430 1428 1424 1421 1418 1413 1409 1405 1402 1401 1398 1399 1397 1398 1402 1405 1408 1411 1413 1417 1422 1427 1432 1436
1485 1478 1474 1469 1459 1450 1447 1443 1444 1444 1447 1454 1452 1449 1447 1446 1444 1442 1440 1437 1433 1430 1425 1419 1415 1412 1408 1403 1399 1397 1395 1394 1396 1397 1400 1401 1404 1406 1409 1414 1417 1422 1426 1431
1485 1475 1470 1462 1456 1454 1449 1451 1452 1453 1459 1457 1453 1451 1451 1447 1446 1445 1444 1440 1435 1430 1425 1420 1415 1409 1404 1399 1396 1394 1392 1391 1390 1392 1394 1396 1400 1403 1406 1409 1412 1415 1422 1425
1487 1483 1485 1459 1457 1455 1455 1454 1457 1458 1460 1458 1456 1452 1450 1448 1445 1444 1442 1439 1435 1430 1424 1419 1416 1410 1403 1399 1394 1389 1386 1383 1383 1385 1387 1390 1395 1397 1401 1403 1406 1409 1415 1420
1485 1479 1467 1454 1459 1460 1458 1457 1458 1457 1456 1456 1453 1450 1447 1446 1445 1441 1439 1436 1432 1428 1424 1418 1414 1409 1404 1398 1393 1390 1386 1384 1383 1383 1384 1388 1389 1392 1396 1399 1401 1406 1409 1413
1482 1476 1469 1457 1458 1458 1457 1455 1453 1452 1451 1449 1447 1447 1442 1439 1437 1435 1433 1431 1427 1424 1420 1416 1411 1407 1402 1397 1392 1387 1384 1381 1381 1381 1382 1382 1383 1386 1389 1391 1394 1398 1402 1410
1480 1482 1471 1462 1459 1456 1460 1459 1451 1450 1446 1443 1442 1441 1435 1433 1429 1429 1425 1422 1419 1417 1414 1410 1408 1403 1398 1395 1390 1384 1381 1378 1377 1377 1377 1377 1380 1382 1383 1385 1389 1392 1399 1406
1484 1480 1476 1459 1457 1467 1460 1450 1448 1446 1441 1437 1433 1430 1427 1425 1422 1419 1417 1413 1412 1408 1406 1403 1402 1399 1394 1390 1386 1381 1378 1376 1373 1373 1374 1375 1377 1379 1380 1386 1387 1389 1395 1403
1481 1469 1460 1460 1460 1458 1455 1448 1444 1441 1438 1435 1428 1422 1418 1414 1412 1409 1408 1406 1403 1401 1397 1396 1394 1393 1389 1385 1380 1375 1374 1373 1372 1370 1370 1371 1375 1378 1380 1383 1383 1389 1395 1401
1478 1463 1464 1461 1456 1454 1450 1444 1439 1435 1431 1428 1420 1415 1409 1406 1403 1400 1397 1397 1394 1392 1389 1386 1386 1385 1382 1380 1376 1371 1369 1368 1368 1367 1367 1368 1371 1375 1379 1381 1383 1388 1396 1403
1474 1466 1461 1457 1454 1450 1442 1436 1429 1425 1422 1417 1411 1404 1401 1396 1394 1392 1389 1389 1387 1383 1381 1378 1377 1377 1376 1374 1371 1367 1366 1365 1365 1366 1365 1367 1371 1376 1379 1382 1385 1389 1397 1401
1476 1473 1467 1456 1451 1444 1435 1426 1420 1414 1405 1405 1403 1395 1392 1386 1385 1383 1381 1380 1378 1374 1371 1370 1370 1369 1369 1367 1365 1363 1361 1362 1362 1364 1365 1368 1370 1376 1383 1386 1390 1395 1402 1409
1476 1469 1462 1450 1441 1435 1426 1416 1407 1401 1394 1387 1386 1385 1381 1376 1374 1372 1372 1371 1369 1366 1364 1363 1362 1361 1361 1361 1359 1357 1356 1358 1360 1362 1365 1368 1371 1376 1381 1392 1400 1406 1412 1416
1472 1462 1451 1442 1432 1422 1414 1402 1392 1384 1378 1373 1369 1371 1370 1368 1365 1364 1363 1363 1361 1358 1356 1356 1355 1354 1354 1354 1352 1351 1351 1353 1356 1360 1364 1368 1372 1378 1383 1389 1397 1404 1413 1416
1467 1460 1451 1439 1426 1415 1405 1393 1381 1372 1363 1357 1358 1360 1361 1360 1359 1357 1356 1355 1353 1351 1349 1348 1347 1346 1346 1346 1344 1344 1346 1349 1353 1358 1364 1368 1372 1379 1384 1391 1398 1404 1410 1416
1461 1454 1445 1434 1423 1412 1400 1389 1378 1368 1360 1355 1353 1353 1353 1353 1352 1351 1349 1348 1346 1343 1342 1341 1339 1338 1338 1337 1337 1339 1342 1346 1351 1357 1363 1368 1373 1381 1387 1393 1400 1405 1409 1412
1457 1446 1438 1429 1421 1411 1402 1392 1381 1371 1361 1354 1349 1348 1347 1347 1345 1343 1341 1340 1339 1337 1335 1333 1331 1329 1329 1330 1331 1334 1339 1344 1350 1357 1363 1369 1374 1382 1388 1394 1399 1404 1408 1412
1461 1454 1445 1436 1426 1416 1405 1396 1386 1376 1368 1360 1352 1347 1346 1343 1341 1339 1337 1335 1334 1332 1330 1327 1325 1324 1324 1326 1329 1333 1338 1344 1350 1355 1363 1370 1376 1384 1391 1396 1400 1405 1409 1412
1461 1454 1446 1438 1430 1420 1411 1401 1392 1384 1375 1367 1361 1356 1352 1349 1345 1342 1339 1336 1334 1331 1329 1326 1324 1323 1325 1328 1331 1335 1339 1344 1351 1358 1365 1372 1379 1387 1393 1397 1402 1407 1410 1412
1460 1455 1448 1441 1433 1425 1417 1408 1399 1391 1383 1376 1370 1365 1361 1357 1353 1349 1345 1341 1339 1337 1333 1330 1329 1330 1331 1333 1336 1339 1343 1348 1355 1362 1370 1377 1382 1388 1394 1399 1404 1407 1411 1413
1464 1457 1451 1444 1437 1430 1423 1416 1408 1400 1393 1386 1380 1375 1370 1366 1362 1357 1353 1351 1349 1344 1341 1339 1338 1337 1338 1340 1343 1347 1350 1355 1362 1368 1375 1381 1385 1391 1397 1399 1403 1409 1412 1414
1466 1460 1454 1448 1441 1435 1429 1422 1415 1409 1402 1396 1390 1385 1380 1376 1372 1369 1365 1362 1360 1355 1351 1349 1349 1348 1349 1349 1352 1355 1359 1364 1370 1375 1380 1387 1391 1395 1399 1400 1402 1407 1410 1412
1469 1463 1458 1452 1446 1442 1436 1428 1423 1418 1412 1406 1401 1396 1392 1389 1383 1378 1376 1375 1371 1367 1364 1363 1362 1360 1359 1359 1363 1366 1370 1374 1380 1385 1388 1391 1394 1397 1398 1400 1402 1404 1407 1408
1471 1466 1461 1456 1451 1445 1438 1435 1431 1426 1421 1416 1411 1406 1402 1397 1394 1390 1389 1386 1383 1380 1378 1378 1376 1375 1374 1374 1375 1379 1384 1387 1389 1391 1393 1395 1396 1397 1399 1401 1402 1403 1406 1407
1473 1470 1464 1459 1454 1450 1446 1442 1438 1433 1428 1424 1420 1415 1411 1408 1404 1402 1398 1395 1393 1391 1388 1388 1388 1387 1385 1385 1387 1389 1390 1391 1394 1396 1397 1398 1399 1399 1399 1401 1403 1404 1404 1405
1476 1473 1468 1465 1461 1456 1452 1448 1443 1440 1436 1431 1428 1424 1420 1416 1413 1410 1407 1405 1403 1401 1399 1397 1397 1394 1393 1392 1392 1393 1395 1397 1399 1401 1401 1401 1401 1401 1401 1402 1403 1402 1402 1401
1479 1476 1472 1468 1465 1461 1457 1453 1449 1445 1443 1439 1436 1432 1428 1425 1422 1419 1417 1415 1413 1411 1409 1407 1404 1401 1400 1400 1401 1401 1403 1404 1406 1407 1407 1405 1405 1404 1405 1404 1402 1401 1399 1398
Wind_Speed
9 12 13 17 20 20 12 11 8 7 8 12 11 9 14 21 24 28 31 34 34 34 36 39 40 37 25 22 20 17 15 15 14 16 18 20 25 29 38 40 37 32 30 32
15 12 13 14 12 15 14 13 11 13 4 5 9 17 26 23 17 23 28 32 32 35 35 37 39 39 33 28 25 20 17 16 16 16 18 20 22 26 33 37 39 39 37 35
4 6 12 4 5 10 8 13 10 6 3 8 12 14 17 25 11 22 23 30 29 34 35 33 36 38 38 32 26 21 18 16 14 19 20 19 25 25 32 36 37 37 41 35
6 8 4 2 4 10 8 9 11 11 10 11 12 22 20 17 17 23 25 27 26 30 32 32 32 36 38 33 27 23 19 16 15 20 20 22 27 29 33 37 37 40 42 40
4 4 9 10 9 10 8 17 7 9 11 14 16 18 14 10 24 26 25 26 24 25 28 29 32 33 36 36 29 24 18 15 13 14 27 24 27 28 31 33 38 42 44 44
4 6 9 1 6 16 7 12 10 16 16 17 16 11 10 28 28 24 26 25 25 28 28 29 31 31 36 35 33 25 20 16 14 13 18 29 22 29 33 34 37 41 46 46
10 8 7 7 10 17 9 7 23 29 29 23 12 15 25 25 31 34 34 34 31 31 31 29 30 28 34 34 35 25 21 17 16 15 14 19 27 32 37 38 41 42 44 46
4 6 10 7 11 2 12 36 29 25 28 30 27 27 30 31 30 29 31 31 30 33 32 28 29 27 31 33 33 26 20 18 16 15 14 17 21 28 33 40 41 44 47 48
4 6 18 28 20 21 25 26 23 28 29 29 31 33 36 37 38 37 29 29 33 34 32 29 31 27 30 30 31 26 20 20 18 14 14 16 18 25 32 38 41 45 49 48
10 4 16 24 34 22 34 33 33 35 40 38 40 40 40 39 33 32 33 33 36 36 30 32 28 23 26 28 29 22 19 22 20 16 15 15 18 26 35 39 43 48 49 48
8 13 33 18 34 35 41 41 41 40 37 35 34 32 31 33 33 36 37 34 37 35 31 30 27 26 23 28 26 18 23 24 20 19 17 19 26 34 38 40 44 48 47 44
9 25 23 31 36 41 45 45 43 41 44 39 40 44 42 42 37 35 36 38 35 31 28 28 26 25 23 28 24 17 26 26 23 24 24 27 32 33 34 35 40 39 38 36
19 29 32 40 40 36 41 45 47 45 45 46 42 38 37 38 39 36 31 31 32 27 27 28 25 23 23 25 24 19 29 30 28 28 30 33 33 34 36 33 30 27 25 24
25 34 34 29 42 46 44 46 46 45 44 44 43 37 36 36 36 33 31 32 28 25 28 26 26 24 20 24 26 20 29 34 32 32 34 36 39 41 41 40 35 30 23 19
32 32 32 39 40 41 42 41 41 32 35 33 31 30 28 30 30 32 30 29 29 26 21 21 22 26 27 26 24 21 32 37 35 37 40 43 44 41 38 35 32 30 28 23
35 32 36 37 37 40 39 42 39 33 28 20 19 21 22 23 25 29 31 30 28 27 24 26 28 28 25 23 19 22 32 37 39 41 43 44 42 37 36 34 30 28 25 24
35 38 42 42 40 41 40 40 39 37 34 26 20 15 14 18 22 24 23 18 18 19 23 23 24 24 19 16 16 25 35 40 40 45 44 40 36 36 34 28 25 25 21 18
33 35 37 37 38 39 39 39 38 36 35 31 25 16 12 9 8 7 8 10 12 15 14 11 11 8 9 10 19 28 37 39 42 45 42 38 35 32 29 22 22 19 17 15
32 34 34 36 37 38 38 37 37 35 34 34 35 32 28 25 21 16 10 9 10 8 9 7 5 2 3 12 24 30 35 38 39 39 38 36 32 26 21 18 17 15 14 13
32 31 31 33 35 37 38 35 34 36 36 37 37 37 40 37 34 31 26 26 20 14 6 5 5 11 19 22 25 31 33 33 34 34 32 31 26 22 19 14 12 11 10 10
30 30 30 31 34 34 35 35 36 37 36 35 38 39 40 41 44 40 38 37 31 22 18 16 17 21 22 25 27 30 30 33 33 29 26 24 22 17 15 13 10 9 9 9
27 28 28 29 31 32 33 33 34 35 35 35 35 36 36 37 39 39 42 40 36 33 33 32 28 25 27 30 34 35 34 32 30 27 23 19 17 15 14 12 9 7 7 8
25 26 26 27 30 29 30 33 33 33 34 35 35 34 35 34 35 38 38 35 35 34 36 34 33 33 35 35 33 32 30 28 25 22 19 17 14 10 8 6 4 4 5 7
24 26 27 25 27 30 33 33 32 31 32 32 32 33 33 33 33 32 30 30 29 32 32 29 29 30 31 31 30 27 25 22 20 17 15 12 10 7 5 3 0 3 6 8
24 23 27 28 29 29 28 28 29 32 30 31 30 29 29 29 29 28 28 28 28 28 30 29 28 27 28 28 26 24 22 21 18 15 13 11 9 7 6 5 4 6 8 10
22 25 25 27 25 25 27 28 29 28 29 29 29 28 27 26 26 25 25 25 25 25 26 27 27 27 27 27 25 24 22 21 18 17 15 13 12 11 9 8 7 8 9 11
21 21 24 27 27 26 26 25 27 28 27 26 27 28 27 26 26 26 26 27 28 29 29 29 30 30 29 28 28 27 26 24 22 20 18 17 15 13 11 10 10 11 12 13
Wind_Direction
311 310 304 288 291 298 277 250 233 282 279 335 32 38 11 20 27 20 14 9 5 359 352 352 355 359 351 344 337 329 309 281 272 262 255 249 246 239 223 224 225 227 221 214
301 290 271 295 278 268 273 271 253 245 242 359 10 18 13 3 15 19 2 358 352 350 347 345 347 351 350 339 332 324 314 299 286 265 249 241 242 242 229 222 222 220 223 218
278 331 334 255 13 36 65 47 29 24 26 357 354 353 353 332 347 6 353 347 340 338 339 338 340 341 348 340 328 320 310 288 287 265 250 248 241 238 234 228 224 228 222 222
284 309 243 143 70 44 20 30 53 42 359 347 336 326 327 327 356 345 333 329 328 324 331 330 332 333 338 343 329 323 318 304 286 264 253 250 242 241 235 229 227 227 222 213
256 248 282 314 43 22 18 328 46 7 343 335 327 330 315 314 320 316 317 321 320 319 321 318 325 326 330 337 331 320 319 318 297 268 251 239 244 239 235 231 226 222 220 212
317 289 266 102 354 1 312 292 351 340 332 323 330 318 307 314 318 323 324 322 317 315 316 308 317 320 323 328 329 320 318 316 306 282 255 245 241 242 233 230 227 224 214 205
310 301 260 235 327 326 315 298 330 317 312 306 306 293 302 313 310 309 310 313 312 305 303 301 309 316 317 321 326 315 312 309 305 292 273 257 244 239 231 224 218 211 202 195
266 279 283 356 351 51 302 306 302 299 298 300 299 302 302 306 303 305 305 304 309 308 303 301 302 309 311 313 321 312 307 301 295 288 271 247 244 240 226 216 203 190 188 180
245 262 287 298 306 315 310 302 318 313 307 308 304 300 300 301 303 301 298 299 304 310 298 295 296 300 305 308 316 311 300 290 280 268 253 244 241 228 211 200 194 184 181 177
339 351 316 331 316 321 316 312 308 303 301 301 295 294 294 296 296 295 296 304 307 312 294 294 301 295 300 302 310 302 286 275 267 248 232 224 216 209 197 188 182 176 174 172
282 305 319 309 316 313 307 302 300 298 295 294 293 292 291 289 289 292 295 299 304 303 293 292 295 291 293 297 305 285 261 251 242 226 213 199 193 189 187 184 190 181 176 175
302 311 302 305 306 301 297 296 296 295 292 285 281 283 284 284 286 288 290 296 297 297 294 296 294 287 287 291 296 272 242 232 218 206 194 190 185 179 185 189 183 180 176 168
303 313 306 301 302 304 299 298 294 290 284 283 280 276 278 280 285 289 285 284 290 295 294 293 289 285 286 286 294 266 236 224 209 199 190 185 182 177 164 158 148 143 146 151
324 322 318 321 313 316 311 308 303 298 290 278 274 273 272 275 281 281 283 283 288 297 295 287 280 277 278 284 290 259 228 221 208 197 188 179 168 158 151 149 152 156 162 165
334 333 323 323 325 326 331 331 326 310 314 282 271 267 268 269 273 277 284 284 286 287 291 287 278 278 280 281 279 248 219 208 203 189 180 170 162 160 157 157 159 160 164 170
338 340 340 339 339 341 342 349 344 335 340 331 289 275 276 276 277 278 283 284 284 286 284 279 277 277 277 275 264 227 212 207 198 185 175 168 162 163 163 166 169 172 177 183
347 345 347 347 350 350 352 355 2 359 8 346 319 309 297 286 286 288 296 300 288 279 288 286 282 277 276 256 232 213 202 196 193 181 177 167 162 173 170 168 176 176 186 187
4 1 2 358 355 356 360 8 16 19 18 34 46 48 36 20 2 339 319 305 293 288 291 288 282 273 246 214 210 202 193 185 185 179 172 166 169 173 170 183 173 178 183 183
14 10 12 11 10 11 14 19 24 34 39 40 43 50 54 53 50 44 35 34 28 17 6 4 16 10 200 196 196 185 179 178 179 173 168 162 167 168 180 191 166 185 189 194
14 17 19 23 25 24 23 34 39 43 47 53 55 49 45 51 55 58 58 57 57 71 78 58 90 146 162 173 179 173 173 174 171 163 157 159 166 173 155 148 176 181 185 189
14 17 20 26 26 30 34 37 42 45 49 53 55 55 56 51 52 55 49 48 56 76 88 101 117 125 137 149 158 160 160 152 146 148 152 146 136 133 151 159 160 174 190 206
15 17 20 27 30 32 35 39 42 44 46 49 53 56 58 60 61 60 57 52 61 76 82 87 95 110 122 125 122 119 117 117 116 113 112 122 135 142 148 150 162 189 219 238
20 22 24 31 34 34 40 41 42 44 45 47 49 53 55 55 56 57 47 57 64 69 74 76 84 90 94 96 96 96 97 100 106 114 119 122 125 130 132 142 168 210 243 257
25 27 29 30 40 40 37 41 41 43 47 47 48 48 49 53 57 60 64 64 67 70 70 75 80 82 86 89 89 92 95 96 97 97 98 100 101 98 97 100 206 260 261 264
30 29 34 30 34 37 36 37 42 41 44 45 46 48 51 52 54 55 56 59 61 65 70 71 75 78 80 83 85 86 87 84 80 78 77 72 67 59 44 18 336 310 300 292
34 28 35 33 30 34 35 36 40 38 37 45 45 46 49 52 54 57 60 63 65 66 69 71 69 70 73 73 73 72 71 70 68 63 60 56 50 44 33 16 358 339 324 314
35 31 32 36 32 33 35 34 38 37 36 39 49 47 50 54 58 60 62 65 68 68 68 68 69 67 68 69 69 69 68 66 64 60 55 49 42 34 23 10 358 346 334 324